This is the latest recevied weather packets stored in our database for station/object SP7QPD-1. If no packets are shown the sender has not sent any weather packets the latest 10 day(s).
| Time | Temp. | Humidity | Pressure | Rain* | Wind** | Luminosity | Snow |
|---|---|---|---|---|---|---|---|
| 1777875781 | 15.56° C | 57% | 1012.7 hPa | 0 mm | - | - | - |
| 1777875181 | 15° C | 58% | 1012.6 hPa | 0 mm | - | - | - |
| 1777874580 | 14.44° C | 61% | 1012.6 hPa | 0 mm | - | - | - |
| 1777873980 | 13.33° C | 64% | 1012.5 hPa | 0 mm | - | - | - |
| 1777873380 | 12.78° C | 67% | 1012.5 hPa | 0 mm | - | - | - |
| 1777872780 | 11.67° C | 69% | 1012.5 hPa | 0 mm | - | - | - |
| 1777872180 | 10° C | 72% | 1012.6 hPa | 0 mm | - | - | - |
| 1777871580 | 9.44° C | 72% | 1012.6 hPa | 0 mm | - | - | - |
| 1777870980 | 8.89° C | 73% | 1012.6 hPa | 0 mm | - | - | - |
| 1777870380 | 8.33° C | 73% | 1012.6 hPa | 0 mm | - | - | - |
| 1777869780 | 7.78° C | 73% | 1012.4 hPa | 0 mm | - | - | - |
| 1777869180 | 7.78° C | 73% | 1012.3 hPa | 0 mm | - | - | - |
| 1777868580 | 7.78° C | 73% | 1012.2 hPa | 0 mm | - | - | - |
| 1777867980 | 7.22° C | 73% | 1012.3 hPa | 0 mm | - | - | - |
| 1777867379 | 7.22° C | 73% | 1012.4 hPa | 0 mm | - | - | - |
| 1777866779 | 7.22° C | 73% | 1012.4 hPa | 0 mm | - | - | - |
| 1777866179 | 7.22° C | 73% | 1012.3 hPa | 0 mm | - | - | - |
| 1777865579 | 7.22° C | 73% | 1012.3 hPa | 0 mm | - | - | - |
| 1777864979 | 7.22° C | 73% | 1012.3 hPa | 0 mm | - | - | - |
| 1777864379 | 7.22° C | 73% | 1012.3 hPa | 0 mm | - | - | - |
| 1777863779 | 7.22° C | 73% | 1012.3 hPa | 0 mm | - | - | - |
| 1777863179 | 7.78° C | 72% | 1012.3 hPa | 0 mm | - | - | - |
| 1777862579 | 7.78° C | 73% | 1012.2 hPa | 0 mm | - | - | - |
| 1777861979 | 7.78° C | 72% | 1012.2 hPa | 0 mm | - | - | - |
| 1777861379 | 7.78° C | 72% | 1012.2 hPa | 0 mm | - | - | - |
* Rain latest hour (hover to see other rain measurements)
** Current wind speed in m/s (hover to see current wind gust speed)